Weather History for Owen Roberts, Cayman Islands

Change the Weather History Date:

Friday, May 30, 2014

  Actual Average Record
Temperature  
Mean Temperature 83 °F -  
Max Temperature 87 °F 86 °F 89 °F (2004)
Min Temperature 79 °F 78 °F 75 °F (2013)
Cooling Degree Days 18    
Growing Degree Days 33 (Base 50)    
Moisture  
Dew Point 76 °F    
Average Humidity 75    
Maximum Humidity 89    
Minimum Humidity 70    
Precipitation  
Precipitation 0.00 in - - ()
Sea Level Pressure  
Sea Level Pressure 29.93 in    
Wind  
Wind Speed 6 mph ()    
Max Wind Speed 9 mph    
Max Gust Speed -    
Visibility 6.2 miles    
Events      
Averages and records for this station are not official NWS values.
T = Trace of Precipitation, MM = Missing Value Source: Averaged Metar Reports

Daily Weather History Graph

Daily Weather History Graph

Search for Another Location

Airport:

Trip Planner

Search our weather history database for the weather conditions in past years. The results will help you decide how hot, cold, wet, or windy it might be!

Date:

Astronomy

May. 30, 2014 Rise Set
Actual Time 5:46 AM EST 6:59 PM EST
Civil Twilight 5:22 AM EST 7:23 PM EST
Nautical Twilight 4:54 AM EST 7:51 PM EST
Astronomical Twilight 4:24 AM EST 8:21 PM EST
Moon 7:23 AM EST 8:43 PM EST
Length of Visible Light 14h 00m
Length of Day
13h 12m
Waxing Crescent, 4% of the Moon is Illuminated
May 30
Waxing Crescent
Jun 5
First Quarter
Jun 12
Full
Jun 19
Last Quarter
Jun 27
New

Hourly Weather History & Observations

Time (EST) Temp. Heat Index Dew Point Humidity Pressure Visibility Wind Dir Wind Speed Gust Speed Precip Events Conditions
6:00 AM 80.6 °F 87.1 °F 77.0 °F 89% 29.92 in 6.2 mi ESE 3.5 mph - N/A   Partly Cloudy
7:00 AM 82 °F - 76 °F 76% 29.94 in 6 mi ESE 4.6 mph - -   Scattered Clouds
7:00 AM 82.4 °F 89.5 °F 75.2 °F 79% 29.92 in 6.2 mi ESE 4.6 mph - N/A   Partly Cloudy
8:00 AM 82.4 °F 90.9 °F 77.0 °F 84% 29.95 in 6.2 mi ESE 6.9 mph - N/A   Scattered Clouds
9:00 AM 86.0 °F 95.1 °F 75.2 °F 70% 29.95 in 6.2 mi ESE 6.9 mph - N/A   Partly Cloudy
10:00 AM 86.0 °F 95.1 °F 75.2 °F 70% 29.98 in 6.2 mi ESE 8.1 mph - N/A   Scattered Clouds
12:00 PM 86.0 °F 96.9 °F 77.0 °F 74% 29.95 in 6.2 mi SE 9.2 mph - N/A   Unknown
1:00 PM 86 °F - 78 °F 70% 29.95 in 6 mi SE 9.2 mph - -   Scattered Clouds
1:00 PM 86.0 °F 96.9 °F 77.0 °F 74% 29.95 in 6.2 mi SE 9.2 mph - N/A   Partly Cloudy
2:00 PM 86.0 °F 96.9 °F 77.0 °F 74% 29.92 in 6.2 mi SE 8.1 mph - N/A   Scattered Clouds
3:00 PM 87.8 °F 99.7 °F 77.0 °F 70% 29.92 in 6.2 mi SSE 8.1 mph - N/A   Partly Cloudy
4:00 PM 86.0 °F 95.1 °F 75.2 °F 70% 29.92 in 6.2 mi SE 8.1 mph - N/A   Scattered Clouds
5:00 PM 86.0 °F 95.1 °F 75.2 °F 70% 29.89 in 6.2 mi SE 8.1 mph - N/A   Partly Cloudy
6:00 PM 84.2 °F 92.3 °F 75.2 °F 74% 29.89 in 6.2 mi SE 6.9 mph - N/A   Partly Cloudy
7:00 PM 83 °F - 75 °F 71% 29.92 in 6 mi ESE 8.1 mph - -   Scattered Clouds
7:00 PM 82.4 °F 89.5 °F 75.2 °F 79% 29.92 in 6.2 mi ESE 8.1 mph - N/A   Partly Cloudy
8:00 PM 82.4 °F 89.5 °F 75.2 °F 79% 29.92 in 6.2 mi ESE 5.8 mph - N/A   Partly Cloudy
9:00 PM 82.4 °F 89.5 °F 75.2 °F 79% 29.95 in 6.2 mi ESE 6.9 mph - N/A   Partly Cloudy
10:00 PM 82.4 °F 89.5 °F 75.2 °F 79% 29.95 in 6.2 mi East 8.1 mph - N/A   Partly Cloudy